| time (UTC) | temp C | wind direction | speed KPH | gust KPH | rain 1hr cm | rain 24hr cm | rain mn cm | humidity % | barometer mb |
| 20260507144501 | 14 | 82 | 0.0 | 4.8 | 0.00 | 0.03 | 0.03 | 39 | 1015.8 |
| 20260507144053 | 13 | 20 | 0.0 | 4.8 | 0.00 | 0.03 | 0.03 | 43 | 1015.7 |
| 20260507143542 | 13 | 120 | 0.0 | 4.8 | 0.00 | 0.03 | 0.03 | 42 | 1015.8 |
| 20260507143029 | 13 | 75 | 0.0 | 4.8 | 0.00 | 0.03 | 0.03 | 41 | 1015.8 |
| 20260507142504 | 13 | 129 | 0.0 | 3.2 | 0.00 | 0.03 | 0.03 | 44 | 1015.8 |
| 20260507142055 | 13 | 339 | 1.6 | 9.7 | 0.00 | 0.03 | 0.03 | 48 | 1015.9 |
| 20260507141543 | 13 | 165 | 0.0 | 9.7 | 0.00 | 0.03 | 0.03 | 41 | 1016.0 |
| 20260507141036 | 12 | 153 | 0.0 | 3.2 | 0.00 | 0.03 | 0.03 | 46 | 1016.0 |
| 20260507140526 | 12 | 359 | 0.0 | 3.2 | 0.00 | 0.03 | 0.03 | 47 | 1016.1 |
| 20260507140106 | 12 | 294 | 0.0 | 6.4 | 0.00 | 0.03 | 0.03 | 47 | 1016.1 |
| 20260507135538 | 12 | 81 | 0.0 | 6.4 | 0.00 | 0.03 | 0.03 | 56 | 1016.0 |
| 20260507135019 | 12 | 205 | 0.0 | 1.6 | 0.00 | 0.03 | 0.03 | 51 | 1016.0 |
| 20260507134506 | 11 | 98 | 0.0 | 3.2 | 0.00 | 0.03 | 0.03 | 54 | 1015.9 |
| 20260507134055 | 11 | 90 | 0.0 | 6.4 | 0.00 | 0.03 | 0.03 | 50 | 1015.9 |
| 20260507133543 | 11 | 106 | 0.0 | 6.4 | 0.00 | 0.03 | 0.03 | 55 | 1015.9 |
| 20260507133034 | 11 | 82 | 0.0 | 4.8 | 0.00 | 0.03 | 0.03 | 58 | 1016.0 |
| 20260507132523 | 11 | 12 | 0.0 | 6.4 | 0.00 | 0.03 | 0.03 | 56 | 1015.9 |
| 20260507132056 | 11 | 86 | 0.0 | 6.4 | 0.00 | 0.03 | 0.03 | 60 | 1015.9 |
| 20260507131545 | 10 | 56 | 0.0 | 6.4 | 0.00 | 0.03 | 0.03 | 60 | 1016.0 |
| 20260507131033 | 10 | 90 | 1.6 | 6.4 | 0.00 | 0.03 | 0.03 | 59 | 1016.0 |
| 20260507130519 | 10 | 346 | 0.0 | 4.8 | 0.00 | 0.03 | 0.03 | 68 | 1016.0 |
| 20260507130110 | 10 | 27 | 0.0 | 4.8 | 0.00 | 0.03 | 0.03 | 72 | 1015.9 |
| 20260507125532 | 10 | 327 | 0.0 | 4.8 | 0.00 | 0.03 | 0.03 | 72 | 1016.0 |
| 20260507125011 | 9 | 75 | 0.0 | 0.0 | 0.00 | 0.03 | 0.03 | 76 | 1015.9 |
| 20260507124620 | 8 | 43 | 0.0 | 1.6 | 0.00 | 0.03 | 0.03 | 79 | 1016.0 |
| 20260507124046 | 8 | 43 | 0.0 | 4.8 | 0.00 | 0.03 | 0.03 | 82 | 1016.0 |
| 20260507123531 | 7 | 126 | 0.0 | 4.8 | 0.00 | 0.03 | 0.03 | 83 | 1016.0 |
| 20260507123016 | 7 | 163 | 0.0 | 1.6 | 0.00 | 0.03 | 0.03 | 85 | 1016.1 |
| 20260507122502 | 6 | 207 | 0.0 | 1.6 | 0.00 | 0.03 | 0.03 | 85 | 1016.0 |
| 20260507122053 | 6 | 257 | 0.0 | 1.6 | 0.00 | 0.03 | 0.03 | 85 | 1016.1 |
| 20260507121550 | 6 | 256 | 0.0 | 1.6 | 0.03 | 0.03 | 0.03 | 85 | 1016.2 |
| 20260507121032 | 6 | 257 | 0.0 | 0.0 | 0.03 | 0.03 | 0.03 | 85 | 1016.1 |
| 20260507120509 | 5 | 257 | 0.0 | 0.0 | 0.03 | 0.03 | 0.03 | 85 | 1016.0 |
| 20260507115539 | 4 | 257 | 0.0 | 0.0 | 0.03 | 0.03 | 0.03 | 85 | 1016.1 |
| 20260507115029 | 3 | 257 | 0.0 | 0.0 | 0.03 | 0.03 | 0.03 | 85 | 1016.1 |
| 20260507114505 | 2 | 257 | 0.0 | 0.0 | 0.03 | 0.03 | 0.03 | 85 | 1016.0 |
| 20260507114053 | 2 | 257 | 0.0 | 0.0 | 0.03 | 0.03 | 0.03 | 85 | 1015.9 |
| 20260507113552 | 2 | 257 | 0.0 | 0.0 | 0.03 | 0.03 | 0.03 | 85 | 1016.0 |
| 20260507113031 | 1 | 257 | 0.0 | 0.0 | 0.03 | 0.03 | 0.03 | 85 | 1016.0 |
| 20260507112514 | 1 | 257 | 0.0 | 0.0 | 0.03 | 0.03 | 0.03 | 85 | 1016.1 |
| 20260507112004 | 1 | 257 | 0.0 | 0.0 | 0.03 | 0.03 | 0.03 | 85 | 1016.0 |
| 20260507111555 | 1 | 257 | 0.0 | 0.0 | 0.00 | 0.00 | 0.00 | 85 | 1016.0 |
| 20260507111043 | 1 | 257 | 0.0 | 0.0 | 0.00 | 0.00 | 0.00 | 85 | 1015.9 |
| 20260507110533 | 1 | 257 | 0.0 | 0.0 | 0.00 | 0.00 | 0.00 | 85 | 1015.8 |
| 20260507110002 | 1 | 257 | 0.0 | 0.0 | 0.00 | 0.00 | 0.00 | 85 | 1015.7 |
| 20260507105554 | 1 | 257 | 0.0 | 0.0 | 0.00 | 0.00 | 0.00 | 85 | 1015.7 |
| 20260507105041 | 1 | 257 | 0.0 | 0.0 | 0.00 | 0.00 | 0.00 | 85 | 1015.5 |
| 20260507104531 | 1 | 257 | 0.0 | 0.0 | 0.00 | 0.00 | 0.00 | 85 | 1015.5 |
| 20260507104028 | 1 | 257 | 0.0 | 0.0 | 0.00 | 0.00 | 0.00 | 85 | 1015.4 |
| 20260507103506 | 1 | 257 | 0.0 | 0.0 | 0.00 | 0.00 | 0.00 | 85 | 1015.4 |
| 20260507103100 | 1 | 257 | 0.0 | 0.0 | 0.00 | 0.00 | 0.00 | 85 | 1015.4 |
| 20260507102542 | 1 | 257 | 0.0 | 0.0 | 0.00 | 0.00 | 0.00 | 85 | 1015.3 |
| 20260507102032 | 1 | 257 | 0.0 | 0.0 | 0.00 | 0.00 | 0.00 | 85 | 1015.4 |
| 20260507101514 | 1 | 257 | 0.0 | 0.0 | 0.00 | 0.00 | 0.00 | 85 | 1015.4 |
| 20260507101019 | 1 | 257 | 0.0 | 0.0 | 0.00 | 0.00 | 0.00 | 85 | 1015.4 |
| 20260507100553 | 1 | 257 | 0.0 | 0.0 | 0.00 | 0.00 | 0.00 | 85 | 1015.4 |
| 20260507100056 | 1 | 257 | 0.0 | 0.0 | 0.00 | 0.00 | 0.00 | 85 | 1015.3 |
| 20260507095514 | 2 | 257 | 0.0 | 0.0 | 0.00 | 0.00 | 0.00 | 85 | 1015.4 |
| 20260507095101 | 2 | 257 | 0.0 | 0.0 | 0.00 | 0.00 | 0.00 | 85 | 1015.3 |
| 20260507094551 | 2 | 257 | 0.0 | 0.0 | 0.00 | 0.00 | 0.00 | 85 | 1015.4 |
| 20260507094038 | 2 | 257 | 0.0 | 0.0 | 0.00 | 0.00 | 0.00 | 85 | 1015.4 |
| 20260507093531 | 2 | 257 | 0.0 | 0.0 | 0.00 | 0.00 | 0.00 | 85 | 1015.4 |
| 20260507093009 | 2 | 257 | 0.0 | 0.0 | 0.00 | 0.00 | 0.00 | 85 | 1015.4 |
| 20260507092558 | 2 | 257 | 0.0 | 0.0 | 0.00 | 0.00 | 0.00 | 85 | 1015.2 |
| 20260507092050 | 2 | 257 | 0.0 | 0.0 | 0.00 | 0.00 | 0.00 | 84 | 1015.3 |
| 20260507091536 | 2 | 257 | 0.0 | 0.0 | 0.00 | 0.00 | 0.00 | 84 | 1015.2 |
| 20260507091029 | 2 | 257 | 0.0 | 0.0 | 0.00 | 0.00 | 0.00 | 84 | 1015.2 |
| 20260507090514 | 2 | 257 | 0.0 | 0.0 | 0.00 | 0.00 | 0.00 | 84 | 1015.1 |
| 20260507090055 | 2 | 257 | 0.0 | 0.0 | 0.00 | 0.00 | 0.00 | 84 | 1015.1 |
| 20260507085526 | 2 | 257 | 0.0 | 0.0 | 0.00 | 0.00 | 0.00 | 84 | 1015.1 |
| 20260507085008 | 2 | 257 | 0.0 | 0.0 | 0.00 | 0.00 | 0.00 | 84 | 1015.0 |
| 20260507084602 | 2 | 257 | 0.0 | 0.0 | 0.00 | 0.00 | 0.00 | 84 | 1015.0 |
| 20260507084049 | 2 | 257 | 0.0 | 0.0 | 0.00 | 0.00 | 0.00 | 84 | 1014.9 |
| 20260507083541 | 2 | 257 | 0.0 | 0.0 | 0.00 | 0.00 | 0.00 | 84 | 1015.0 |
| 20260507083031 | 2 | 257 | 0.0 | 0.0 | 0.00 | 0.00 | 0.00 | 84 | 1014.9 |
| 20260507082526 | 2 | 257 | 0.0 | 0.0 | 0.00 | 0.00 | 0.00 | 84 | 1014.9 |
| 20260507082001 | 2 | 257 | 0.0 | 0.0 | 0.00 | 0.00 | 0.00 | 84 | 1014.9 |
| 20260507081559 | 2 | 257 | 0.0 | 0.0 | 0.00 | 0.00 | 0.00 | 84 | 1014.9 |
| 20260507081034 | 2 | 257 | 0.0 | 0.0 | 0.00 | 0.00 | 0.00 | 84 | 1014.8 |
| 20260507080521 | 2 | 257 | 0.0 | 0.0 | 0.00 | 0.00 | 0.00 | 84 | 1014.8 |
| 20260507080103 | 3 | 257 | 0.0 | 0.0 | 0.00 | 0.00 | 0.00 | 84 | 1014.8 |
| 20260507075537 | 3 | 257 | 0.0 | 0.0 | 0.00 | 0.18 | 0.00 | 84 | 1014.8 |
| 20260507075028 | 3 | 257 | 0.0 | 0.0 | 0.00 | 0.18 | 0.00 | 84 | 1014.8 |
| 20260507074515 | 3 | 257 | 0.0 | 0.0 | 0.00 | 0.18 | 0.00 | 84 | 1014.8 |
| 20260507074055 | 3 | 257 | 0.0 | 0.0 | 0.00 | 0.18 | 0.00 | 84 | 1014.8 |
| 20260507073542 | 3 | 257 | 0.0 | 0.0 | 0.00 | 0.18 | 0.00 | 84 | 1014.8 |
| 20260507073043 | 3 | 257 | 0.0 | 0.0 | 0.00 | 0.18 | 0.00 | 84 | 1014.9 |
| 20260507072522 | 3 | 257 | 0.0 | 0.0 | 0.00 | 0.18 | 0.00 | 84 | 1014.8 |
| 20260507072007 | 3 | 257 | 0.0 | 0.0 | 0.00 | 0.18 | 0.00 | 84 | 1014.8 |
| 20260507071600 | 3 | 257 | 0.0 | 0.0 | 0.00 | 0.18 | 0.00 | 84 | 1014.7 |
| 20260507071045 | 3 | 257 | 0.0 | 0.0 | 0.00 | 0.18 | 0.00 | 84 | 1014.7 |
| 20260507070529 | 3 | 257 | 0.0 | 0.0 | 0.00 | 0.18 | 0.00 | 84 | 1014.7 |
| 20260507070112 | 3 | 257 | 0.0 | 0.0 | 0.00 | 0.18 | 0.00 | 84 | 1014.8 |
| 20260507065543 | 3 | 257 | 0.0 | 0.0 | 0.00 | 0.41 | 0.00 | 84 | 1014.8 |
| 20260507065033 | 3 | 257 | 0.0 | 0.0 | 0.00 | 0.41 | 0.00 | 84 | 1014.8 |
| 20260507064525 | 3 | 257 | 0.0 | 0.0 | 0.00 | 0.41 | 0.00 | 84 | 1014.8 |
| 20260507064058 | 3 | 257 | 0.0 | 0.0 | 0.00 | 0.41 | 0.00 | 84 | 1014.8 |
| 20260507063549 | 3 | 257 | 0.0 | 0.0 | 0.00 | 0.41 | 0.00 | 84 | 1015.0 |
| 20260507063034 | 3 | 257 | 0.0 | 0.0 | 0.00 | 0.41 | 0.00 | 84 | 1015.0 |
| 20260507062513 | 3 | 257 | 0.0 | 0.0 | 0.00 | 0.41 | 0.00 | 84 | 1015.0 |
| 20260507062004 | 3 | 257 | 0.0 | 0.0 | 0.00 | 0.41 | 0.00 | 84 | 1015.0 |
| 20260507061556 | 3 | 257 | 0.0 | 0.0 | 0.00 | 0.41 | 0.00 | 84 | 1015.0 |
| 20260507061043 | 3 | 257 | 0.0 | 0.0 | 0.00 | 0.41 | 0.00 | 84 | 1014.9 |
| 20260507060531 | 4 | 257 | 0.0 | 0.0 | 0.00 | 0.41 | 0.00 | 84 | 1014.9 |
| 20260507060007 | 4 | 257 | 0.0 | 0.0 | 0.00 | 0.86 | 0.00 | 84 | 1014.9 |
| 20260507055554 | 4 | 257 | 0.0 | 0.0 | 0.00 | 0.86 | 0.00 | 84 | 1014.9 |
| 20260507055043 | 4 | 257 | 0.0 | 0.0 | 0.00 | 0.86 | 0.00 | 84 | 1015.0 |
| 20260507054538 | 4 | 257 | 0.0 | 0.0 | 0.00 | 0.86 | 0.00 | 84 | 1015.0 |
| 20260507054018 | 5 | 257 | 0.0 | 0.0 | 0.00 | 0.86 | 0.00 | 84 | 1015.0 |
| 20260507053504 | 4 | 257 | 0.0 | 0.0 | 0.00 | 0.86 | 0.00 | 84 | 1015.0 |
| 20260507053057 | 4 | 257 | 0.0 | 0.0 | 0.00 | 0.86 | 0.00 | 84 | 1015.1 |
| 20260507052542 | 4 | 257 | 0.0 | 0.0 | 0.00 | 0.86 | 0.00 | 84 | 1015.0 |
| 20260507052030 | 4 | 257 | 0.0 | 0.0 | 0.00 | 0.86 | 0.00 | 84 | 1015.0 |
| 20260507051518 | 4 | 257 | 0.0 | 0.0 | 0.00 | 0.86 | 0.00 | 84 | 1014.8 |
| 20260507051104 | 4 | 257 | 0.0 | 0.0 | 0.00 | 0.86 | 0.00 | 84 | 1015.0 |
| 20260507050550 | 4 | 257 | 0.0 | 0.0 | 0.00 | 0.86 | 0.00 | 84 | 1014.9 |
| 20260507050012 | 4 | 257 | 0.0 | 0.0 | 0.00 | 1.30 | 0.00 | 84 | 1015.1 |
| 20260507045606 | 4 | 257 | 0.0 | 0.0 | 0.00 | 1.30 | 0.00 | 84 | 1015.1 |
| 20260507045047 | 4 | 257 | 0.0 | 0.0 | 0.00 | 1.30 | 0.00 | 84 | 1015.1 |
| 20260507044546 | 4 | 257 | 0.0 | 0.0 | 0.00 | 1.30 | 0.00 | 84 | 1015.2 |
| 20260507044029 | 4 | 257 | 0.0 | 0.0 | 0.00 | 1.30 | 0.00 | 84 | 1015.1 |
| 20260507043512 | 4 | 257 | 0.0 | 0.0 | 0.00 | 1.30 | 0.00 | 84 | 1015.1 |
| 20260507043101 | 5 | 257 | 0.0 | 0.0 | 0.00 | 1.30 | 0.00 | 84 | 1015.0 |
| 20260507042548 | 5 | 257 | 0.0 | 0.0 | 0.00 | 1.30 | 0.00 | 84 | 1015.0 |
| 20260507042037 | 5 | 257 | 0.0 | 0.0 | 0.00 | 1.30 | 0.00 | 84 | 1014.9 |
| 20260507041527 | 5 | 257 | 0.0 | 0.0 | 0.00 | 1.30 | 0.00 | 84 | 1015.0 |
| 20260507041103 | 5 | 257 | 0.0 | 0.0 | 0.00 | 1.30 | 0.00 | 84 | 1015.0 |
| 20260507040552 | 5 | 257 | 0.0 | 0.0 | 0.00 | 1.30 | 0.00 | 84 | 1015.0 |
| 20260507040041 | 5 | 257 | 0.0 | 0.0 | 0.00 | 1.30 | 0.00 | 84 | 1014.9 |
| 20260507035603 | 5 | 257 | 0.0 | 0.0 | 0.00 | 1.42 | 1.30 | 84 | 1014.9 |
| 20260507035053 | 5 | 257 | 0.0 | 0.0 | 0.00 | 1.42 | 1.30 | 84 | 1014.8 |
| 20260507034545 | 5 | 257 | 0.0 | 0.0 | 0.00 | 1.42 | 1.30 | 84 | 1014.8 |
| 20260507034031 | 5 | 257 | 0.0 | 0.0 | 0.00 | 1.42 | 1.30 | 84 | 1014.9 |
| 20260507033524 | 5 | 257 | 0.0 | 0.0 | 0.00 | 1.42 | 1.30 | 84 | 1014.9 |
| 20260507033004 | 5 | 257 | 0.0 | 0.0 | 0.00 | 1.42 | 1.30 | 84 | 1014.9 |
| 20260507032554 | 5 | 257 | 0.0 | 0.0 | 0.00 | 1.42 | 1.30 | 84 | 1014.9 |
| 20260507032050 | 5 | 257 | 0.0 | 0.0 | 0.00 | 1.42 | 1.30 | 83 | 1014.8 |
| 20260507031535 | 5 | 257 | 0.0 | 0.0 | 0.00 | 1.42 | 1.30 | 83 | 1014.9 |
| 20260507031030 | 5 | 257 | 0.0 | 0.0 | 0.00 | 1.42 | 1.30 | 83 | 1015.0 |
| 20260507030503 | 5 | 257 | 0.0 | 0.0 | 0.00 | 1.42 | 1.30 | 83 | 1015.0 |
| 20260507030054 | 6 | 257 | 0.0 | 0.0 | 0.00 | 1.42 | 1.30 | 83 | 1015.0 |
| 20260507025523 | 6 | 257 | 0.0 | 0.0 | 0.00 | 1.52 | 1.30 | 83 | 1015.0 |
| 20260507025005 | 6 | 257 | 0.0 | 0.0 | 0.00 | 1.52 | 1.30 | 83 | 1015.0 |
| 20260507024614 | 6 | 257 | 0.0 | 0.0 | 0.00 | 1.52 | 1.30 | 83 | 1014.9 |
| 20260507024045 | 6 | 257 | 0.0 | 0.0 | 0.00 | 1.52 | 1.30 | 83 | 1014.9 |
| 20260507023536 | 6 | 257 | 0.0 | 0.0 | 0.00 | 1.52 | 1.30 | 82 | 1014.8 |
| 20260507023100 | 6 | 257 | 0.0 | 0.0 | 0.00 | 1.52 | 1.30 | 82 | 1014.8 |
| 20260507022554 | 6 | 257 | 0.0 | 0.0 | 0.00 | 1.52 | 1.30 | 82 | 1014.8 |
| 20260507022039 | 6 | 257 | 0.0 | 0.0 | 0.00 | 1.52 | 1.30 | 82 | 1014.8 |
| 20260507021523 | 6 | 257 | 0.0 | 0.0 | 0.00 | 1.52 | 1.30 | 82 | 1014.8 |
| 20260507021003 | 6 | 257 | 0.0 | 0.0 | 0.00 | 1.52 | 1.30 | 81 | 1014.7 |
| 20260507020553 | 6 | 257 | 0.0 | 0.0 | 0.00 | 1.52 | 1.30 | 81 | 1014.6 |
| 20260507015513 | 7 | 257 | 0.0 | 0.0 | 0.00 | 1.78 | 1.30 | 81 | 1014.5 |
| 20260507015049 | 7 | 257 | 0.0 | 0.0 | 0.00 | 1.78 | 1.30 | 80 | 1014.5 |
| 20260507014545 | 7 | 257 | 0.0 | 0.0 | 0.00 | 1.78 | 1.30 | 80 | 1014.5 |
| 20260507014030 | 7 | 257 | 0.0 | 0.0 | 0.00 | 1.78 | 1.30 | 80 | 1014.4 |
| 20260507013518 | 7 | 257 | 0.0 | 0.0 | 0.00 | 1.78 | 1.30 | 79 | 1014.3 |
| 20260507013100 | 7 | 257 | 0.0 | 0.0 | 0.00 | 1.78 | 1.30 | 79 | 1014.3 |
| 20260507012547 | 7 | 257 | 0.0 | 0.0 | 0.00 | 1.78 | 1.30 | 79 | 1014.1 |
| 20260507012040 | 8 | 257 | 0.0 | 0.0 | 0.00 | 1.78 | 1.30 | 78 | 1014.2 |
| 20260507011526 | 8 | 257 | 0.0 | 0.0 | 0.00 | 1.78 | 1.30 | 78 | 1014.0 |
| 20260507011002 | 8 | 257 | 0.0 | 0.0 | 0.00 | 1.78 | 1.30 | 78 | 1014.0 |
| 20260507010551 | 8 | 257 | 0.0 | 0.0 | 0.00 | 1.78 | 1.30 | 77 | 1014.0 |
| 20260507010041 | 9 | 257 | 0.0 | 0.0 | 0.00 | 1.78 | 1.30 | 77 | 1014.1 |
| 20260507005519 | 9 | 257 | 0.0 | 0.0 | 0.00 | 1.98 | 1.30 | 77 | 1014.1 |
| 20260507005059 | 9 | 257 | 0.0 | 0.0 | 0.00 | 1.98 | 1.30 | 76 | 1014.0 |
| 20260507004546 | 10 | 257 | 0.0 | 0.0 | 0.00 | 1.98 | 1.30 | 76 | 1014.0 |
| 20260507004039 | 10 | 257 | 0.0 | 0.0 | 0.00 | 1.98 | 1.30 | 75 | 1013.9 |
| 20260507003526 | 10 | 257 | 0.0 | 0.0 | 0.00 | 1.98 | 1.30 | 74 | 1014.0 |
| 20260507003007 | 10 | 257 | 0.0 | 0.0 | 0.00 | 1.98 | 1.30 | 74 | 1013.9 |
| 20260507002555 | 10 | 257 | 0.0 | 0.0 | 0.00 | 1.98 | 1.30 | 72 | 1013.8 |
| 20260507002044 | 10 | 257 | 0.0 | 0.0 | 0.00 | 1.98 | 1.30 | 71 | 1013.6 |
| 20260507001529 | 10 | 257 | 0.0 | 0.0 | 0.00 | 1.98 | 1.30 | 69 | 1013.7 |
| 20260507001013 | 11 | 257 | 0.0 | 0.0 | 0.00 | 1.98 | 1.30 | 68 | 1013.7 |
| 20260507000503 | 11 | 257 | 0.0 | 1.6 | 0.00 | 1.98 | 1.30 | 66 | 1013.5 |
| 20260507000056 | 11 | 257 | 0.0 | 1.6 | 0.00 | 1.98 | 1.30 | 66 | 1013.6 |
| 20260506235534 | 11 | 155 | 0.0 | 0.0 | 0.00 | 2.06 | 1.30 | 67 | 1013.6 |
| 20260506235019 | 11 | 89 | 0.0 | 0.0 | 0.00 | 2.06 | 1.30 | 70 | 1013.5 |
| 20260506234501 | 11 | 89 | 0.0 | 0.0 | 0.00 | 2.06 | 1.30 | 65 | 1013.3 |
| 20260506234055 | 11 | 304 | 0.0 | 3.2 | 0.00 | 2.06 | 1.30 | 66 | 1013.3 |
| 20260506233540 | 12 | 128 | 0.0 | 3.2 | 0.00 | 2.06 | 1.30 | 64 | 1013.4 |
| 20260506233026 | 12 | 118 | 0.0 | 3.2 | 0.00 | 2.06 | 1.30 | 67 | 1013.4 |
| 20260506232507 | 12 | 122 | 0.0 | 1.6 | 0.00 | 2.06 | 1.30 | 63 | 1013.4 |
| 20260506232055 | 12 | 89 | 0.0 | 3.2 | 0.00 | 2.06 | 1.30 | 63 | 1013.3 |
| 20260506231556 | 12 | 348 | 0.0 | 3.2 | 0.00 | 2.06 | 1.30 | 62 | 1013.1 |
| 20260506231034 | 12 | 211 | 0.0 | 3.2 | 0.00 | 2.06 | 1.30 | 58 | 1013.0 |
| 20260506230517 | 13 | 17 | 0.0 | 3.2 | 0.00 | 2.06 | 1.30 | 60 | 1013.0 |
| 20260506230130 | 13 | 198 | 0.0 | 3.2 | 0.00 | 2.06 | 1.30 | 55 | 1013.1 |
| 20260506225539 | 13 | 32 | 0.0 | 11.3 | 0.00 | 2.06 | 1.30 | 58 | 1013.1 |
| 20260506225030 | 13 | 346 | 0.0 | 11.3 | 0.00 | 2.06 | 1.30 | 55 | 1013.2 |
| 20260506224512 | 13 | 133 | 0.0 | 1.6 | 0.00 | 2.06 | 1.30 | 55 | 1013.2 |
| 20260506224003 | 13 | 143 | 0.0 | 1.6 | 0.00 | 2.06 | 1.30 | 57 | 1013.1 |
| 20260506223553 | 13 | 142 | 0.0 | 0.0 | 0.00 | 2.06 | 1.30 | 54 | 1013.1 |
| 20260506223054 | 13 | 328 | 0.0 | 4.8 | 0.00 | 2.06 | 1.30 | 59 | 1013.3 |
| 20260506222536 | 13 | 327 | 0.0 | 4.8 | 0.00 | 2.06 | 1.30 | 60 | 1013.4 |
| 20260506222028 | 13 | 221 | 0.0 | 1.6 | 0.00 | 2.06 | 1.30 | 58 | 1013.3 |
| 20260506221506 | 13 | 81 | 0.0 | 1.6 | 0.00 | 2.06 | 1.30 | 64 | 1013.4 |
| 20260506221055 | 13 | 80 | 0.0 | 3.2 | 0.00 | 2.06 | 1.30 | 65 | 1013.5 |
| 20260506220542 | 14 | 342 | 0.0 | 3.2 | 0.00 | 2.06 | 1.30 | 60 | 1013.5 |
| 20260506220010 | 14 | 25 | 0.0 | 0.0 | 0.00 | 2.11 | 1.30 | 58 | 1013.6 |
| 20260506215559 | 14 | 25 | 0.0 | 0.0 | 0.00 | 2.11 | 1.30 | 60 | 1013.5 |
| 20260506215045 | 14 | 24 | 0.0 | 1.6 | 0.00 | 2.11 | 1.30 | 64 | 1013.6 |
| 20260506214535 | 14 | 102 | 0.0 | 1.6 | 0.00 | 2.11 | 1.30 | 58 | 1013.5 |
| 20260506214022 | 13 | 136 | 0.0 | 1.6 | 0.00 | 2.11 | 1.30 | 57 | 1013.5 |
| 20260506213504 | 13 | 235 | 0.0 | 1.6 | 0.00 | 2.11 | 1.30 | 53 | 1013.4 |
| 20260506213104 | 14 | 82 | 0.0 | 1.6 | 0.00 | 2.11 | 1.30 | 59 | 1013.4 |
| 20260506212542 | 14 | 72 | 0.0 | 3.2 | 0.00 | 2.11 | 1.30 | 55 | 1013.3 |
| 20260506212035 | 14 | 327 | 0.0 | 3.2 | 0.00 | 2.11 | 1.30 | 57 | 1013.3 |
| 20260506211524 | 14 | 330 | 0.0 | 4.8 | 0.00 | 2.11 | 1.30 | 57 | 1013.4 |
| 20260506211006 | 15 | 359 | 0.0 | 4.8 | 0.00 | 2.11 | 1.30 | 54 | 1013.2 |
| 20260506210554 | 15 | 356 | 0.0 | 3.2 | 0.00 | 2.11 | 1.30 | 50 | 1013.0 |
| 20260506210046 | 15 | 68 | 0.0 | 6.4 | 0.00 | 2.11 | 1.30 | 52 | 1013.0 |
| 20260506205519 | 15 | 68 | 0.0 | 6.4 | 0.00 | 2.24 | 1.30 | 51 | 1013.0 |
| 20260506205103 | 15 | 156 | 0.0 | 3.2 | 0.00 | 2.24 | 1.30 | 50 | 1013.0 |
| 20260506204554 | 15 | 138 | 0.0 | 3.2 | 0.00 | 2.24 | 1.30 | 51 | 1013.0 |
| 20260506204037 | 15 | 1 | 0.0 | 3.2 | 0.00 | 2.24 | 1.30 | 58 | 1013.1 |
| 20260506203523 | 15 | 316 | 0.0 | 3.2 | 0.00 | 2.24 | 1.30 | 58 | 1013.0 |
| 20260506203003 | 15 | 6 | 0.0 | 4.8 | 0.00 | 2.24 | 1.30 | 55 | 1013.0 |
| 20260506202559 | 15 | 101 | 0.0 | 4.8 | 0.00 | 2.24 | 1.30 | 51 | 1013.2 |
| 20260506202049 | 15 | 200 | 0.0 | 3.2 | 0.00 | 2.24 | 1.30 | 56 | 1013.2 |
| 20260506201545 | 15 | 330 | 0.0 | 0.0 | 0.00 | 2.24 | 1.30 | 58 | 1013.3 |
| 20260506201024 | 15 | 330 | 0.0 | 1.6 | 0.00 | 2.24 | 1.30 | 51 | 1013.2 |
| 20260506200504 | 15 | 330 | 0.0 | 1.6 | 0.00 | 2.24 | 1.30 | 54 | 1013.1 |
| 20260506200101 | 15 | 334 | 0.0 | 1.6 | 0.00 | 2.24 | 1.30 | 53 | 1013.2 |
| 20260506195532 | 14 | 88 | 0.0 | 1.6 | 0.00 | 2.64 | 1.30 | 52 | 1013.3 |
| 20260506195023 | 14 | 88 | 0.0 | 1.6 | 0.00 | 2.64 | 1.30 | 57 | 1013.2 |
| 20260506194501 | 14 | 110 | 0.0 | 4.8 | 0.00 | 2.64 | 1.30 | 55 | 1013.2 |
| 20260506194054 | 14 | 96 | 0.0 | 4.8 | 0.00 | 2.64 | 1.30 | 49 | 1013.2 |
| 20260506193535 | 15 | 77 | 0.0 | 4.8 | 0.00 | 2.64 | 1.30 | 54 | 1013.1 |
| 20260506193015 | 15 | 98 | 0.0 | 1.6 | 0.00 | 2.64 | 1.30 | 48 | 1013.0 |
| 20260506192503 | 15 | 314 | 0.0 | 4.8 | 0.00 | 2.64 | 1.30 | 47 | 1013.0 |
| 20260506192058 | 15 | 340 | 0.0 | 4.8 | 0.00 | 2.64 | 1.30 | 47 | 1012.7 |
| 20260506191548 | 16 | 335 | 0.0 | 6.4 | 0.00 | 2.64 | 1.30 | 45 | 1012.8 |
| 20260506191034 | 16 | 193 | 0.0 | 6.4 | 0.00 | 2.64 | 1.30 | 49 | 1012.7 |
| 20260506190529 | 16 | 208 | 0.0 | 4.8 | 0.00 | 2.64 | 1.30 | 55 | 1012.8 |
| 20260506190107 | 16 | 326 | 0.0 | 4.8 | 0.00 | 2.64 | 1.30 | 54 | 1012.8 |
| 20260506185544 | 16 | 141 | 0.0 | 6.4 | 0.00 | 2.64 | 1.30 | 45 | 1012.7 |
| 20260506185028 | 16 | 114 | 0.0 | 6.4 | 0.00 | 2.64 | 1.30 | 46 | 1012.6 |
| 20260506184512 | 17 | 101 | 0.0 | 3.2 | 0.00 | 2.64 | 1.30 | 50 | 1012.8 |
| 20260506184006 | 17 | 308 | 0.0 | 6.4 | 0.00 | 2.64 | 1.30 | 49 | 1012.6 |
| 20260506183554 | 17 | 226 | 0.0 | 6.4 | 0.00 | 2.64 | 1.30 | 50 | 1012.7 |
| 20260506183056 | 17 | 61 | 0.0 | 6.4 | 0.00 | 2.64 | 1.30 | 47 | 1012.5 |
| 20260506182528 | 17 | 113 | 1.6 | 6.4 | 0.00 | 2.64 | 1.30 | 44 | 1012.5 |
| 20260506182010 | 17 | 20 | 1.6 | 6.4 | 0.00 | 2.64 | 1.30 | 50 | 1012.6 |
| 20260506181558 | 17 | 91 | 0.0 | 6.4 | 0.00 | 2.64 | 1.30 | 50 | 1012.6 |
| 20260506181047 | 17 | 146 | 0.0 | 6.4 | 0.00 | 2.64 | 1.30 | 48 | 1012.5 |
| 20260506180534 | 16 | 115 | 0.0 | 6.4 | 0.00 | 2.64 | 1.30 | 50 | 1012.6 |
| 20260506180137 | 16 | 153 | 0.0 | 4.8 | 0.00 | 2.64 | 1.30 | 48 | 1012.8 |
| 20260506175542 | 16 | 131 | 1.6 | 6.4 | 0.00 | 2.64 | 1.30 | 44 | 1012.8 |
| 20260506175030 | 16 | 274 | 0.0 | 6.4 | 0.00 | 2.64 | 1.30 | 43 | 1012.9 |
| 20260506174522 | 16 | 209 | 0.0 | 3.2 | 0.00 | 2.64 | 1.30 | 45 | 1012.9 |
| 20260506174102 | 16 | 345 | 0.0 | 6.4 | 0.00 | 2.64 | 1.30 | 53 | 1013.0 |
| 20260506173553 | 16 | 302 | 1.6 | 6.4 | 0.00 | 2.64 | 1.30 | 50 | 1013.1 |
| 20260506173048 | 16 | 359 | 0.0 | 4.8 | 0.00 | 2.64 | 1.30 | 47 | 1013.0 |
| 20260506172531 | 16 | 335 | 0.0 | 3.2 | 0.00 | 2.64 | 1.30 | 53 | 1013.1 |
| 20260506172014 | 15 | 3 | 0.0 | 4.8 | 0.00 | 2.64 | 1.30 | 51 | 1013.0 |
| 20260506171558 | 15 | 340 | 0.0 | 4.8 | 0.00 | 2.64 | 1.30 | 55 | 1013.0 |
| 20260506171053 | 15 | 325 | 1.6 | 6.4 | 0.00 | 2.64 | 1.30 | 50 | 1013.2 |
| 20260506170537 | 15 | 207 | 0.0 | 8.0 | 0.00 | 2.64 | 1.30 | 48 | 1013.2 |
| 20260506170004 | 15 | 312 | 0.0 | 4.8 | 0.00 | 2.64 | 1.30 | 47 | 1013.3 |
| 20260506165554 | 15 | 311 | 0.0 | 3.2 | 0.00 | 2.64 | 1.30 | 50 | 1013.4 |
| 20260506165046 | 14 | 356 | 0.0 | 4.8 | 0.00 | 2.64 | 1.30 | 52 | 1013.2 |
| 20260506164528 | 15 | 150 | 0.0 | 4.8 | 0.00 | 2.64 | 1.30 | 54 | 1013.4 |
| 20260506164011 | 15 | 177 | 0.0 | 4.8 | 0.00 | 2.64 | 1.30 | 51 | 1013.3 |
| 20260506163558 | 15 | 155 | 0.0 | 6.4 | 0.00 | 2.64 | 1.30 | 54 | 1013.2 |
| 20260506163054 | 15 | 81 | 3.2 | 6.4 | 0.00 | 2.64 | 1.30 | 49 | 1013.0 |
| 20260506162529 | 15 | 195 | 0.0 | 3.2 | 0.00 | 2.64 | 1.30 | 55 | 1013.1 |
| 20260506162018 | 15 | 138 | 1.6 | 4.8 | 0.00 | 2.64 | 1.30 | 53 | 1013.2 |
| 20260506161600 | 14 | 297 | 1.6 | 8.0 | 0.00 | 2.64 | 1.30 | 55 | 1013.4 |
| 20260506161049 | 14 | 131 | 0.0 | 6.4 | 0.00 | 2.64 | 1.30 | 56 | 1013.3 |
| 20260506160539 | 13 | 258 | 0.0 | 6.4 | 0.00 | 2.64 | 1.30 | 58 | 1013.2 |
| 20260506160007 | 13 | 115 | 0.0 | 6.4 | 0.00 | 2.64 | 1.30 | 56 | 1013.2 |
| 20260506155556 | 13 | 203 | 1.6 | 6.4 | 0.00 | 2.64 | 1.30 | 57 | 1013.2 |
| 20260506155046 | 13 | 313 | 0.0 | 4.8 | 0.00 | 2.64 | 1.30 | 63 | 1013.0 |
| 20260506154534 | 13 | 311 | 0.0 | 9.7 | 0.00 | 2.64 | 1.30 | 64 | 1013.0 |
| 20260506154020 | 12 | 79 | 0.0 | 9.7 | 0.00 | 2.64 | 1.30 | 60 | 1013.1 |
| 20260506153602 | 12 | 125 | 0.0 | 4.8 | 0.00 | 2.64 | 1.30 | 62 | 1012.8 |
| 20260506153050 | 12 | 176 | 0.0 | 1.6 | 0.00 | 2.64 | 1.30 | 68 | 1012.8 |
| 20260506152540 | 12 | 79 | 0.0 | 4.8 | 0.00 | 2.64 | 1.30 | 67 | 1013.1 |
| 20260506152030 | 12 | 136 | 0.0 | 4.8 | 0.00 | 2.64 | 1.30 | 62 | 1013.4 |
| 20260506151518 | 12 | 77 | 0.0 | 4.8 | 0.00 | 2.64 | 1.30 | 62 | 1013.5 |
| 20260506151002 | 12 | 228 | 0.0 | 3.2 | 0.00 | 2.64 | 1.30 | 66 | 1013.3 |
| 20260506150552 | 12 | 335 | 0.0 | 4.8 | 0.00 | 2.64 | 1.30 | 69 | 1012.9 |
| 20260506150044 | 12 | 359 | 1.6 | 4.8 | 0.00 | 2.64 | 1.30 | 64 | 1012.6 |
| 20260506145504 | 12 | 188 | 0.0 | 4.8 | 0.00 | 2.64 | 1.30 | 73 | 1012.6 |
| 20260506145059 | 12 | 195 | 0.0 | 4.8 | 0.00 | 2.64 | 1.30 | 75 | 1012.6 |